Location: Pardubice
(50.0330°N, 15.7830°E)
Time: 23:42:07
(UTC+01:00)

ISS - Pass Details

Date: 03 October 2020
Orbit: 417 x 420 km, 51.6° (Epoch: 30 October)

Event Time Altitude Azimuth Distance (km) Brightness Sun altitude
Rises 19:31:07 0° 287° (WNW) 2,370 2.0 -10.6°
Reaches altitude 10° 19:33:14 10° 283° (WNW) 1,504 0.6 -11.0°
Maximum altitude 19:36:33 55° 206° (SSW) 510 -3.2 -11.5°
Enters shadow 19:39:06 16° 130° (SE) 1,202 -1.9 -11.9°
